This is the latest recevied weather packets stored in our database for station/object K3HW. If no packets are shown the sender has not sent any weather packets the latest 10 day(s).
| Time | Temp. | Humidity | Pressure | Rain* | Wind** | Luminosity | Snow |
|---|---|---|---|---|---|---|---|
| 1777764172 | 12.78° C | 40% | 1014.8 hPa | 0 mm | - | 9 W/m² | - |
| 1777763868 | 12.78° C | 40% | 1014.7 hPa | 0 mm | - | 10 W/m² | - |
| 1777763566 | 13.33° C | 41% | 1014.8 hPa | 0 mm | - | 11 W/m² | - |
| 1777763264 | 13.33° C | 39% | 1014.9 hPa | 0 mm | - | 12 W/m² | - |
| 1777762962 | 13.33° C | 39% | 1014.9 hPa | 0 mm | - | 17 W/m² | - |
| 1777762659 | 13.89° C | 39% | 1014.9 hPa | 0 mm | - | 20 W/m² | - |
| 1777762356 | 13.89° C | 41% | 1014.7 hPa | 0 mm | - | 28 W/m² | - |
| 1777762052 | 13.89° C | 40% | 1014.8 hPa | 0 mm | - | 19 W/m² | - |
| 1777761749 | 14.44° C | 39% | 1015 hPa | 0 mm | - | 29 W/m² | - |
| 1777761446 | 13.89° C | 42% | 1015 hPa | 0 mm | - | 27 W/m² | - |
| 1777761144 | 13.33° C | 40% | 1014.9 hPa | 0 mm | - | 28 W/m² | - |
| 1777760841 | 13.33° C | 39% | 1014.7 hPa | 0 mm | - | 28 W/m² | - |
| 1777760538 | 13.33° C | 40% | 1014.6 hPa | 0 mm | - | 19 W/m² | - |
| 1777760234 | 13.89° C | 40% | 1014.6 hPa | 0 mm | - | 26 W/m² | - |
| 1777759931 | 13.89° C | 40% | 1014.9 hPa | 0 mm | - | 33 W/m² | - |
| 1777759627 | 13.89° C | 39% | 1014.8 hPa | 0 mm | - | 49 W/m² | - |
| 1777759323 | 13.89° C | 40% | 1014.8 hPa | 0 mm | - | 55 W/m² | - |
| 1777759020 | 14.44° C | 39% | 1014.6 hPa | 0 mm | - | 51 W/m² | - |
| 1777758717 | 15° C | 39% | 1014.7 hPa | 0 mm | - | 54 W/m² | - |
| 1777758415 | 15.56° C | 39% | 1014.8 hPa | 0 mm | - | 241 W/m² | - |
| 1777758112 | 15.56° C | 38% | 1014.7 hPa | 0 mm | - | 263 W/m² | - |
| 1777757809 | 16.11° C | 37% | 1014.8 hPa | 0 mm | - | 282 W/m² | - |
| 1777757506 | 15° C | 42% | 1014.7 hPa | 0 mm | - | 293 W/m² | - |
| 1777757205 | 14.44° C | 42% | 1014.9 hPa | 0 mm | - | 202 W/m² | - |
| 1777756903 | 14.44° C | 39% | 1014.5 hPa | 0 mm | - | 81 W/m² | - |
* Rain latest hour (hover to see other rain measurements)
** Current wind speed in m/s (hover to see current wind gust speed)